GW0543 Weather Reports


Display with metric or nautical units.
time (UTC)temp
F
wind
direction
speed
MPH
gust
MPH
rain 1hr
in
rain 24hr
in
rain mn
in
humidity
%
barometer
mb
20260504184605 62 107 1.0 5.0 0.00 0.22 0.22 92 1010.0
20260504183100 62 173 2.0 8.0 0.00 0.22 0.22 92 1010.0
20260504181559 62 161 2.0 10.0 0.00 0.22 0.22 91 1010.2
20260504180058 62 142 3.0 7.0 0.00 0.22 0.22 91 1009.9
20260504174555 62 151 2.0 6.0 0.00 0.22 0.22 90 1009.8
20260504173053 62 171 5.0 9.0 0.01 0.22 0.22 90 1010.2
20260504171558 63 141 2.0 8.0 0.01 0.22 0.22 91 1010.2
20260504081558 66 224 3.0 7.0 0.00 0.00 0.00 73 1012.0
20260504070104 63 352 2.0 10.0 0.00 0.00 0.00 77 1011.9
20260504044603 57 0 2.0 8.0 0.00 0.00 0.00 90 1012.3
20260504043054 57 207 1.0 5.0 0.00 0.00 0.00 90 1012.4
20260504041556 58 0 0.0 5.0 0.00 0.00 0.00 90 1012.6
20260504040058 58 0 1.0 7.0 0.00 0.00 0.00 90 1012.5
20260504034614 58 223 3.0 6.0 0.00 0.00 0.00 88 1012.8
20260504033056 59 182 2.0 7.0 0.00 0.00 0.00 86 1013.1
20260504031552 59 286 2.0 4.0 0.00 0.00 0.00 86 1013.2
20260504030058 59 0 1.0 6.0 0.00 0.00 0.00 85 1013.1
20260504024553 59 0 0.0 6.0 0.00 0.00 0.00 85 1013.2
20260504023057 59 159 2.0 5.0 0.00 0.00 0.00 86 1013.4
20260504021557 59 186 2.0 10.0 0.00 0.00 0.00 85 1013.1
20260504020053 59 159 3.0 10.0 0.00 0.00 0.00 85 1013.3
20260504014611 59 134 3.0 10.0 0.00 0.00 0.00 86 1013.3
20260504013055 59 114 2.0 12.0 0.00 0.00 0.00 86 1013.3
20260504011558 59 144 4.0 13.0 0.00 0.00 0.00 88 1013.5
20260504010059 60 246 4.0 9.0 0.00 0.00 0.00 88 1013.6
20260504004552 60 245 5.0 12.0 0.00 0.00 0.00 86 1013.7
20260504003059 60 58 5.0 11.0 0.00 0.00 0.00 85 1013.5
20260504001556 60 159 4.0 12.0 0.00 0.00 0.00 85 1013.6
20260504000057 60 131 7.0 12.0 0.00 0.00 0.00 85 1013.8
20260503234551 60 143 4.0 9.0 0.00 0.00 0.00 85 1014.1
20260503233053 60 148 3.0 9.0 0.00 0.00 0.00 85 1014.2
20260503231554 60 182 3.0 8.0 0.00 0.00 0.00 85 1014.2
20260503230051 60 163 4.0 11.0 0.00 0.00 0.00 83 1014.5
20260503224556 60 148 4.0 9.0 0.00 0.00 0.00 84 1014.6
20260503223055 61 164 4.0 10.0 0.00 0.00 0.00 84 1014.9
20260503221554 61 188 2.0 7.0 0.00 0.00 0.00 84 1015.1
20260503220054 61 178 3.0 8.0 0.00 0.00 0.00 84 1015.1
20260503214552 60 136 3.0 9.0 0.00 0.00 0.00 85 1015.1
20260503213108 61 162 5.0 10.0 0.00 0.00 0.00 85 1015.1
20260503211556 61 210 4.0 10.0 0.00 0.00 0.00 84 1015.2
20260503210101 61 173 5.0 13.0 0.00 0.00 0.00 84 1015.3
20260503204555 61 188 4.0 10.0 0.00 0.00 0.00 85 1015.3
20260503203102 61 182 4.0 10.0 0.00 0.00 0.00 85 1015.4
20260503201554 61 190 3.0 10.0 0.00 0.00 0.00 85 1015.3
20260503200057 61 134 4.0 8.0 0.00 0.00 0.00 84 1015.1
20260503194554 61 184 4.0 9.0 0.00 0.00 0.00 83 1015.0
20260503193107 61 164 5.0 12.0 0.00 0.00 0.00 81 1014.7
20260503191601 61 147 3.0 12.0 0.00 0.00 0.00 81 1014.8
20260503190056 62 194 5.0 9.0 0.00 0.00 0.00 80 1014.7